SCP
-0 -0 -0 -0 -0 -0 -0 -0 -0 -0 -0 -0 -0 -0 0 0 -0 0 0 -0 -0 0 0 -0 -0 -0 -0 -0 -0 0 0 0 0 0 0 0 0 0 0 0 0 0 0 0 0
-0 -0 -0 -0 -0 0 -0 -0 -0 -0 -0 -0 -0 -0 -0 -0 -0 0 -0 -0 -0 -0 0 -0 0 -0 -0 -0 -0 0 0 0 0 0 0 0 0 0 0 0 0 0 0 0 0
-0 -0 -0 -0 -0 -0 -0 -0 -0 -0 0 0 -0 -0 -0 -0 -0 0 0 -0 -0 -0 -0 -0 -0 -0 -0 0 0 0 0 0 0 0 0 0 0 0 0 0 0 0 0 0 0
-0 -0 -0 -0 -0 -0 0 0 0 0 0 0 -0 -0 0 0 -0 0 0 -0 0 0 -0 -0 -0 -0 -0 0 0 -0 -0 0 0 0 0 0 0 0 0 0 0 0 0 0 0
-0 -0 -0 -0 -0 0 0 0 0 0 0 -0 -0 -0 -0 0 0 0 0 0 0 0 -0 -0 -0 -0 -0 -0 -0 -0 -0 0 0 0 0 0 0 0 0 0 0 0 0 0 0
-0 -0 0 0 -0 0 0 0 0 0 -0 -0 -0 -0 0 0 0 0 0 0 0 -0 -0 -0 -0 -0 -0 -0 -0 -0 0 0 -0 -0 -0 -0 0 0 -0 0 -0 0 0 0 0
-0 -0 -0 0 0 0 0 0 0 0 -0 -0 0 0 0 0 0 0 0 0 0 -0 -0 -0 0 -0 -0 -0 -0 -0 -0 -0 -0 -0 -0 0 0 -0 -0 0 0 0 0 0 0
-0 -0 -0 0 0 0 0 0 -0 0 -0 0 0 0 0 0 -0 0 0 -0 0 0 0 0 0 0 0 -0 -0 -0 -0 -0 0 0 0 0 0 0 0 0 0 0 0 0 0
-0 -0 -0 -0 0 0 -0 -0 0 0 0 0 0 0 0 0 0 0 0 0 0 0 0 0 0 0 -0 -0 -0 -0 0 0 0 0 0 0 0 0 0 0 0 0 0 0 0
-0 -0 -0 -0 0 0 -0 -0 -0 0 0 0 0 0 0 0 0 0 0 0 0 0 -0 0 0 0 0 0 0 0 0 0 0 0 0 0 0 0 0 0 0 0 0 0 0
-0 -0 -0 -0 0 -0 -0 0 0 0 0 -0 0 0 0 0 0 0 0 0 0 0 0 0 0 0 0 0 0 0 0 0 0 0 0 0 0 0 0 0 0 0 0 0 0
-0 -0 -0 -0 0 0 0 0 -0 -0 0 0 0 0 0 0 0 0 0 0 0 0 0 0 0 0 0 0 0 0 0 0 0 0 0 0 0 0 0 0 0 0 0 0 0
-0 -0 -0 0 -0 -0 0 0 -0 0 0 0 0 0 0 0 0 0 0 0 0 0 0 0 0 -0 0 0 0 0 0 0 0 0 0 0 0 0 0 0 0 0 0 0 0
-0 -0 0 -0 0 -0 0 0 0 0 0 0 0 0 0 0 0 0 0 0 0 0 0 0 0 0 0 0 0 0 0 0 0 0 0 0 0 0 0 0 0 0 -0 -0 0
-0 -0 -0 -0 -0 -0 -0 0 0 0 0 0 0 0 0 0 0 0 0 0 0 0 0 0 0 0 0 0 0 0 0 0 0 0 0 -0 0 0 -0 0 0 -0 0 0 0
0 0 -0 0 0 0 -0 0 0 0 0 0 0 0 0 0 0 0 0 0 0 0 0 0 0 0 0 0 0 0 0 0 0 0 0 0 0 -0 0 0 -0 0 0 0 0
0 -0 -0 -0 -0 -0 -0 0 0 0 0 0 0 0 0 0 0 0 0 0 0 0 0 0 0 -0 0 0 0 0 0 0 0 0 0 0 -0 0 -0 -0 -0 -0 0 0 0
-0 -0 0 -0 -0 -0 -0 0 -0 -0 0 0 0 0 0 0 0 0 0 0 0 0 0 0 0 0 0 0 0 0 0 0 0 0 -0 0 0 0 0 0 -0 -0 0 0 0
-0 0 0 0 0 0 0 -0 0 0 0 0 0 0 0 0 0 0 0 0 0 0 0 0 0 0 0 -0 -0 0 0 0 0 0 -0 0 -0 0 0 0 0 0 -0 -0 0
0 -0 0 0 0 0 0 0 0 0 0 0 0 0 0 0 0 0 0 0 0 0 0 0 0 0 0 0 0 0 0 0 0 0 0 -0 -0 0 -0 0 0 -0 0 -0 0
0 0 0 0 0 0 0 0 0 0 0 0 0 0 0 0 0 0 0 0 0 0 0 0 0 0 0 0 -0 -0 -0 0 0 0 -0 -0 -0 0 0 0 0 0 0 0 0
0 0 0 0 0 0 0 0 0 0 0 0 0 0 0 0 0 0 0 0 0 0 0 0 0 0 0 -0 0 0 0 0 -0 -0 -0 -0 0 -0 0 0 0 0 0 0 0
0 0 0 0 0 0 0 0 0 0 0 0 0 0 0 0 0 0 0 0 0 0 0 0 0 0 0 0 0 -0 -0 -0 -0 -0 -0 -0 0 -0 -0 -0 0 0 0 0 0
0 0 0 0 0 0 0 0 0 0 0 0 0 0 0 0 0 0 0 0 0 0 0 0 0 0 0 0 0 0 0 -0 0 0 -0 0 -0 -0 0 0 0 0 0 0 0
0 0 0 0 0 0 0 0 0 0 0 0 0 0 0 0 0 0 0 -0 0 0 0 0 0 0 0 0 0 0 -0 0 0 -0 -0 0 -0 0 0 0 0 -0 0 -0 0
0 0 0 0 0 0 0 0 0 0 0 0 0 0 0 0 0 0 0 0 0 0 0 0 0 0 0 0 0 0 0 -0 0 0 0 0 0 0 0 0 -0 -0 0 0 0
0 0 0 0 0 0 0 0 0 0 0 0 0 0 0 0 0 0 0 0 0 0 0 0 0 0 0 0 -0 -0 0 -0 0 0 0 0 0 0 0 0 -0 -0 0 0 0
Wind_Speed_500mb
26 21 18 15 13 11 12 17 18 15 13 4 17 23 24 20 15 19 13 9 15 16 17 17 14 14 12 10 9 15 13 21 24 27 28 49 41 17 13 20 29 33 39 47 54
31 20 18 17 15 14 11 18 20 17 12 13 23 22 16 8 10 14 11 13 17 20 28 21 17 17 21 11 7 11 19 31 25 25 29 40 39 40 36 38 36 42 47 46 46
31 19 15 15 15 15 16 19 17 15 14 18 25 20 11 5 6 8 9 17 18 21 22 20 14 14 20 6 7 16 22 36 30 28 33 38 43 39 41 36 45 46 47 45 43
30 19 12 12 12 16 19 19 14 12 16 18 22 21 8 5 5 2 7 16 22 25 27 18 20 25 18 9 18 18 28 30 25 29 34 33 44 44 48 52 50 51 52 54 51
30 18 10 9 13 17 19 16 9 11 19 21 19 11 1 3 16 4 9 14 25 22 19 22 25 25 23 33 25 30 32 26 36 43 43 47 46 44 49 52 47 49 50 53 54
29 19 12 10 14 19 20 12 8 14 20 17 9 3 14 5 5 6 15 16 22 20 21 20 20 25 32 36 30 39 36 41 50 55 53 44 38 42 51 52 57 56 54 52 53
27 20 14 13 17 21 17 10 13 18 21 16 7 13 10 12 3 9 17 22 23 20 24 26 28 30 38 37 34 46 42 43 46 51 32 22 37 41 58 56 46 51 42 47 56
25 19 15 16 19 19 11 14 17 22 24 12 5 14 3 11 4 9 19 20 16 21 25 25 25 31 31 40 47 45 44 37 33 50 46 52 47 51 66 64 65 61 59 55 50
26 17 16 17 22 14 11 12 17 18 11 2 8 14 4 10 6 15 14 19 23 25 26 30 23 31 34 33 31 37 36 49 51 45 46 43 52 48 67 65 60 61 65 66 65
25 15 17 18 24 15 15 10 14 17 10 18 22 16 9 8 15 18 9 21 29 24 36 36 33 30 29 28 25 42 43 45 48 48 48 50 53 51 64 63 62 63 65 67 70
20 12 16 16 20 15 5 12 9 12 23 28 12 12 5 10 16 15 13 21 21 31 31 25 22 28 36 21 30 38 43 48 51 50 46 48 48 51 57 65 62 66 67 72 71
14 14 12 11 11 12 13 11 12 16 23 37 25 19 17 13 21 17 8 24 29 31 33 28 27 32 42 29 35 41 47 48 48 46 46 50 55 55 54 56 57 57 64 68 74
12 10 14 10 5 5 6 16 19 17 18 25 22 22 15 12 27 26 11 27 28 30 31 32 40 37 19 32 38 43 42 43 51 51 52 51 56 49 55 61 45 45 60 57 61
17 9 10 14 10 10 6 22 19 11 10 22 17 8 12 20 32 12 18 12 23 32 35 29 26 42 44 43 38 42 37 44 46 46 41 45 45 46 38 40 22 46 48 65 54
27 12 8 12 11 17 20 21 13 4 9 11 16 7 14 20 31 16 4 15 31 39 36 40 39 43 37 43 28 34 40 48 58 52 51 55 27 32 42 31 29 23 33 25 26
30 11 5 9 9 17 22 20 9 11 2 6 5 16 22 35 39 13 28 25 39 36 31 42 45 39 45 26 22 41 44 51 44 37 30 50 8 15 19 16 52 25 39 22 10
27 8 5 5 13 24 25 17 13 12 3 12 26 33 37 44 23 20 21 27 28 30 34 40 38 39 36 38 34 49 45 21 22 16 28 31 8 21 26 48 56 47 27 36 36
24 7 3 11 16 22 19 18 19 20 29 32 29 39 42 16 11 22 28 32 31 21 27 29 37 23 49 46 49 47 35 19 20 22 40 37 19 11 21 29 59 68 86 40 19
19 12 8 4 16 16 18 14 12 23 27 26 35 32 27 30 37 38 33 28 13 14 14 24 23 51 48 43 37 38 24 11 17 35 26 27 38 16 21 8 22 36 70 74 57
23 6 13 10 16 6 13 24 12 20 20 21 31 22 39 41 36 33 32 20 13 9 13 21 43 28 36 46 38 36 12 10 11 12 12 27 38 15 13 34 18 9 20 46 41
14 12 3 13 5 15 16 18 23 36 19 14 26 35 34 38 33 37 25 33 20 14 22 29 5 30 46 36 43 30 24 22 9 11 10 16 18 36 42 28 25 37 42 38 16
7 10 5 16 17 22 11 13 20 22 28 30 22 27 29 35 36 35 35 29 22 20 24 17 12 30 53 53 45 15 26 18 5 24 27 26 37 34 33 45 39 37 45 56 66
20 21 1 14 9 17 27 26 37 13 18 22 23 32 25 34 23 20 32 29 34 10 11 6 4 18 33 13 16 41 42 36 37 33 35 27 28 27 42 38 47 52 63 58 62
17 9 13 23 6 12 26 26 27 27 18 15 23 34 29 29 32 32 43 39 32 29 8 9 23 28 27 42 44 47 48 48 35 19 38 34 47 41 35 39 46 66 66 68 66
18 13 11 12 24 32 23 27 28 27 26 28 28 34 36 36 37 38 36 52 51 39 10 6 18 31 36 47 52 53 54 51 37 40 24 19 44 38 39 46 57 75 69 74 67
18 16 23 43 25 25 22 24 28 28 33 36 26 33 29 34 37 53 46 38 40 29 17 12 23 29 49 48 52 56 46 32 36 39 34 36 44 39 51 54 61 73 76 70 73
27 20 21 23 25 24 20 29 34 38 26 32 41 36 39 40 46 54 62 68 51 42 39 35 32 33 39 37 45 35 8 18 20 24 17 23 47 36 40 52 71 81 74 75 84
Wind_Direction_500mb
17 21 28 35 35 32 34 23 11 9 7 87 123 112 106 98 61 25 31 65 87 26 9 359 272 326 269 277 283 286 265 259 278 342 341 335 356 12 351 306 290 281 272 278 288
13 17 27 35 35 31 29 11 11 13 26 117 137 139 132 106 78 54 58 82 82 45 28 8 353 318 275 285 250 281 288 282 6 345 328 325 325 325 315 298 286 283 277 275 272
11 16 32 41 40 32 16 3 8 27 65 118 141 144 136 9 297 62 33 69 60 26 350 334 309 309 299 277 326 320 305 310 332 330 323 313 307 306 298 284 281 282 283 281 281
7 18 36 39 31 19 7 0 12 53 94 116 141 153 159 296 40 110 65 60 33 21 359 349 337 346 302 283 316 287 293 302 291 302 293 286 290 287 284 283 287 285 281 278 276
9 21 45 42 24 13 5 4 33 86 111 126 134 145 273 138 65 71 16 354 350 348 348 343 338 340 329 317 307 293 301 285 296 297 291 280 278 280 282 285 282 282 279 274 268
17 30 45 45 20 8 4 16 77 114 131 134 123 330 311 229 44 328 346 318 314 320 327 324 332 324 294 295 310 294 307 299 289 276 265 257 266 281 282 280 282 280 269 267 270
24 34 43 38 13 4 12 67 104 122 135 126 87 348 325 45 311 324 319 313 312 307 309 313 317 310 305 300 297 310 290 275 266 261 269 262 256 256 260 259 280 279 268 265 266
20 33 43 25 8 6 44 109 121 128 131 118 49 335 7 29 280 314 327 330 341 306 298 302 308 303 290 283 281 273 266 271 297 334 326 324 299 296 297 294 290 278 273 272 248
18 30 35 27 16 25 85 125 139 145 141 159 315 276 161 314 340 320 316 322 319 314 304 285 282 283 280 265 273 276 324 322 312 321 317 308 295 293 294 289 283 278 275 271 258
19 31 32 33 30 65 93 117 178 191 264 267 270 268 216 312 318 317 289 319 310 307 302 274 233 266 269 283 316 324 310 305 300 307 303 293 290 294 299 297 293 289 282 275 264
18 24 28 35 50 74 56 327 264 236 225 257 290 278 259 296 303 278 284 313 304 306 295 319 289 272 297 339 318 307 297 293 291 296 307 302 302 300 300 287 278 272 272 270 271
2 11 354 6 39 42 17 316 354 313 293 243 256 254 261 275 286 309 279 303 320 307 307 290 296 313 319 318 295 287 287 292 305 316 316 307 296 288 279 273 276 281 268 259 253
331 350 360 355 52 3 343 353 329 315 278 255 227 243 260 257 282 299 295 304 311 305 315 310 302 297 307 284 298 299 301 318 314 311 298 294 286 295 298 293 298 309 308 259 267
336 288 329 338 328 335 307 340 336 310 271 158 216 239 250 261 280 231 280 314 295 303 306 301 290 310 302 301 300 298 326 307 301 301 293 298 293 283 316 330 278 272 282 301 255
342 287 288 335 329 5 329 326 321 298 274 157 124 141 267 247 276 304 148 273 285 302 300 290 302 290 289 288 310 310 304 294 299 296 297 290 297 330 331 327 313 285 251 278 320
344 303 238 331 320 332 328 316 322 237 215 208 182 252 263 298 311 316 296 293 294 288 281 282 296 307 290 333 305 280 292 305 309 303 293 295 19 293 291 215 254 249 251 293 312
353 324 244 233 320 322 323 304 255 256 97 13 342 322 316 300 292 329 313 289 298 308 305 314 301 287 347 341 323 324 303 309 296 307 284 325 201 239 356 346 349 345 341 324 310
354 348 249 269 309 317 321 272 261 318 5 349 332 317 288 316 320 285 296 303 314 327 323 302 315 334 349 325 306 296 299 300 298 301 299 306 273 23 5 339 332 347 341 343 298
342 352 348 261 310 315 294 256 358 353 344 332 317 305 328 329 336 324 309 315 337 346 310 322 286 315 305 299 313 311 314 335 265 258 280 281 285 39 325 283 332 9 340 324 350
346 272 231 285 303 288 257 255 331 359 351 331 308 302 326 327 321 324 321 326 331 4 323 307 306 313 307 322 292 294 322 260 224 305 314 302 310 137 272 340 308 295 207 274 329
353 267 113 332 298 257 261 328 356 344 341 331 320 312 314 316 328 318 295 305 5 346 332 319 299 289 304 309 314 317 322 310 357 258 303 313 306 326 320 7 339 332 328 323 338
344 291 6 336 264 238 357 357 317 320 323 305 304 300 319 321 320 307 307 307 21 351 318 39 296 297 303 297 275 222 322 276 252 279 276 283 283 292 317 328 340 326 325 333 328
321 295 355 2 317 348 339 331 304 291 322 318 305 310 329 313 306 287 304 309 331 324 311 25 281 309 311 298 354 317 318 313 295 300 287 285 283 310 328 313 329 320 312 314 312
318 320 2 328 194 348 336 313 327 319 305 312 310 305 290 306 317 302 299 292 297 311 301 235 269 264 263 284 298 302 299 294 288 275 289 277 295 294 304 328 332 324 317 310 305
349 16 12 308 330 319 310 302 301 313 329 325 314 304 310 308 309 301 304 312 304 306 292 203 261 271 267 285 290 292 291 293 313 296 300 287 292 312 324 329 323 307 304 302 292
5 350 325 297 304 296 287 305 329 333 331 315 316 322 317 307 302 300 306 300 302 302 288 188 266 281 281 283 286 292 304 330 311 303 315 314 299 311 339 336 317 303 299 299 295
356 336 306 290 296 312 327 336 314 315 312 312 324 314 307 303 311 304 296 287 274 277 274 271 274 282 280 295 304 298 346 267 316 316 319 297 302 345 321 314 307 303 299 288 279
Wind_Speed_850mb
26 21 18 15 13 11 12 17 18 15 13 4 17 23 24 20 15 19 13 9 15 16 17 17 14 14 12 10 9 15 13 21 24 27 28 49 41 17 13 20 29 33 39 47 54
31 20 18 17 15 14 11 18 20 17 12 13 23 22 16 8 10 14 11 13 17 20 28 21 17 17 21 11 7 11 19 31 25 25 29 40 39 40 36 38 36 42 47 46 46
31 19 15 15 15 15 16 19 17 15 14 18 25 20 11 5 6 8 9 17 18 21 22 20 14 14 20 6 7 16 22 36 30 28 33 38 43 39 41 36 45 46 47 45 43
30 19 12 12 12 16 19 19 14 12 16 18 22 21 8 5 5 2 7 16 22 25 27 18 20 25 18 9 18 18 28 30 25 29 34 33 44 44 48 52 50 51 52 54 51
30 18 10 9 13 17 19 16 9 11 19 21 19 11 1 3 16 4 9 14 25 22 19 22 25 25 23 33 25 30 32 26 36 43 43 47 46 44 49 52 47 49 50 53 54
29 19 12 10 14 19 20 12 8 14 20 17 9 3 14 5 5 6 15 16 22 20 21 20 20 25 32 36 30 39 36 41 50 55 53 44 38 42 51 52 57 56 54 52 53
27 20 14 13 17 21 17 10 13 18 21 16 7 13 10 12 3 9 17 22 23 20 24 26 28 30 38 37 34 46 42 43 46 51 32 22 37 41 58 56 46 51 42 47 56
25 19 15 16 19 19 11 14 17 22 24 12 5 14 3 11 4 9 19 20 16 21 25 25 25 31 31 40 47 45 44 37 33 50 46 52 47 51 66 64 65 61 59 55 50
26 17 16 17 22 14 11 12 17 18 11 2 8 14 4 10 6 15 14 19 23 25 26 30 23 31 34 33 31 37 36 49 51 45 46 43 52 48 67 65 60 61 65 66 65
25 15 17 18 24 15 15 10 14 17 10 18 22 16 9 8 15 18 9 21 29 24 36 36 33 30 29 28 25 42 43 45 48 48 48 50 53 51 64 63 62 63 65 67 70
20 12 16 16 20 15 5 12 9 12 23 28 12 12 5 10 16 15 13 21 21 31 31 25 22 28 36 21 30 38 43 48 51 50 46 48 48 51 57 65 62 66 67 72 71
14 14 12 11 11 12 13 11 12 16 23 37 25 19 17 13 21 17 8 24 29 31 33 28 27 32 42 29 35 41 47 48 48 46 46 50 55 55 54 56 57 57 64 68 74
12 10 14 10 5 5 6 16 19 17 18 25 22 22 15 12 27 26 11 27 28 30 31 32 40 37 19 32 38 43 42 43 51 51 52 51 56 49 55 61 45 45 60 57 61
17 9 10 14 10 10 6 22 19 11 10 22 17 8 12 20 32 12 18 12 23 32 35 29 26 42 44 43 38 42 37 44 46 46 41 45 45 46 38 40 22 46 48 65 54
27 12 8 12 11 17 20 21 13 4 9 11 16 7 14 20 31 16 4 15 31 39 36 40 39 43 37 43 28 34 40 48 58 52 51 55 27 32 42 31 29 23 33 25 26
30 11 5 9 9 17 22 20 9 11 2 6 5 16 22 35 39 13 28 25 39 36 31 42 45 39 45 26 22 41 44 51 44 37 30 50 8 15 19 16 52 25 39 22 10
27 8 5 5 13 24 25 17 13 12 3 12 26 33 37 44 23 20 21 27 28 30 34 40 38 39 36 38 34 49 45 21 22 16 28 31 8 21 26 48 56 47 27 36 36
24 7 3 11 16 22 19 18 19 20 29 32 29 39 42 16 11 22 28 32 31 21 27 29 37 23 49 46 49 47 35 19 20 22 40 37 19 11 21 29 59 68 86 40 19
19 12 8 4 16 16 18 14 12 23 27 26 35 32 27 30 37 38 33 28 13 14 14 24 23 51 48 43 37 38 24 11 17 35 26 27 38 16 21 8 22 36 70 74 57
23 6 13 10 16 6 13 24 12 20 20 21 31 22 39 41 36 33 32 20 13 9 13 21 43 28 36 46 38 36 12 10 11 12 12 27 38 15 13 34 18 9 20 46 41
14 12 3 13 5 15 16 18 23 36 19 14 26 35 34 38 33 37 25 33 20 14 22 29 5 30 46 36 43 30 24 22 9 11 10 16 18 36 42 28 25 37 42 38 16
7 10 5 16 17 22 11 13 20 22 28 30 22 27 29 35 36 35 35 29 22 20 24 17 12 30 53 53 45 15 26 18 5 24 27 26 37 34 33 45 39 37 45 56 66
20 21 1 14 9 17 27 26 37 13 18 22 23 32 25 34 23 20 32 29 34 10 11 6 4 18 33 13 16 41 42 36 37 33 35 27 28 27 42 38 47 52 63 58 62
17 9 13 23 6 12 26 26 27 27 18 15 23 34 29 29 32 32 43 39 32 29 8 9 23 28 27 42 44 47 48 48 35 19 38 34 47 41 35 39 46 66 66 68 66
18 13 11 12 24 32 23 27 28 27 26 28 28 34 36 36 37 38 36 52 51 39 10 6 18 31 36 47 52 53 54 51 37 40 24 19 44 38 39 46 57 75 69 74 67
18 16 23 43 25 25 22 24 28 28 33 36 26 33 29 34 37 53 46 38 40 29 17 12 23 29 49 48 52 56 46 32 36 39 34 36 44 39 51 54 61 73 76 70 73
27 20 21 23 25 24 20 29 34 38 26 32 41 36 39 40 46 54 62 68 51 42 39 35 32 33 39 37 45 35 8 18 20 24 17 23 47 36 40 52 71 81 74 75 84
Wind_Direction_850mb
17 21 28 35 35 32 34 23 11 9 7 87 123 112 106 98 61 25 31 65 87 26 9 359 272 326 269 277 283 286 265 259 278 342 341 335 356 12 351 306 290 281 272 278 288
13 17 27 35 35 31 29 11 11 13 26 117 137 139 132 106 78 54 58 82 82 45 28 8 353 318 275 285 250 281 288 282 6 345 328 325 325 325 315 298 286 283 277 275 272
11 16 32 41 40 32 16 3 8 27 65 118 141 144 136 9 297 62 33 69 60 26 350 334 309 309 299 277 326 320 305 310 332 330 323 313 307 306 298 284 281 282 283 281 281
7 18 36 39 31 19 7 0 12 53 94 116 141 153 159 296 40 110 65 60 33 21 359 349 337 346 302 283 316 287 293 302 291 302 293 286 290 287 284 283 287 285 281 278 276
9 21 45 42 24 13 5 4 33 86 111 126 134 145 273 138 65 71 16 354 350 348 348 343 338 340 329 317 307 293 301 285 296 297 291 280 278 280 282 285 282 282 279 274 268
17 30 45 45 20 8 4 16 77 114 131 134 123 330 311 229 44 328 346 318 314 320 327 324 332 324 294 295 310 294 307 299 289 276 265 257 266 281 282 280 282 280 269 267 270
24 34 43 38 13 4 12 67 104 122 135 126 87 348 325 45 311 324 319 313 312 307 309 313 317 310 305 300 297 310 290 275 266 261 269 262 256 256 260 259 280 279 268 265 266
20 33 43 25 8 6 44 109 121 128 131 118 49 335 7 29 280 314 327 330 341 306 298 302 308 303 290 283 281 273 266 271 297 334 326 324 299 296 297 294 290 278 273 272 248
18 30 35 27 16 25 85 125 139 145 141 159 315 276 161 314 340 320 316 322 319 314 304 285 282 283 280 265 273 276 324 322 312 321 317 308 295 293 294 289 283 278 275 271 258
19 31 32 33 30 65 93 117 178 191 264 267 270 268 216 312 318 317 289 319 310 307 302 274 233 266 269 283 316 324 310 305 300 307 303 293 290 294 299 297 293 289 282 275 264
18 24 28 35 50 74 56 327 264 236 225 257 290 278 259 296 303 278 284 313 304 306 295 319 289 272 297 339 318 307 297 293 291 296 307 302 302 300 300 287 278 272 272 270 271
2 11 354 6 39 42 17 316 354 313 293 243 256 254 261 275 286 309 279 303 320 307 307 290 296 313 319 318 295 287 287 292 305 316 316 307 296 288 279 273 276 281 268 259 253
331 350 360 355 52 3 343 353 329 315 278 255 227 243 260 257 282 299 295 304 311 305 315 310 302 297 307 284 298 299 301 318 314 311 298 294 286 295 298 293 298 309 308 259 267
336 288 329 338 328 335 307 340 336 310 271 158 216 239 250 261 280 231 280 314 295 303 306 301 290 310 302 301 300 298 326 307 301 301 293 298 293 283 316 330 278 272 282 301 255
342 287 288 335 329 5 329 326 321 298 274 157 124 141 267 247 276 304 148 273 285 302 300 290 302 290 289 288 310 310 304 294 299 296 297 290 297 330 331 327 313 285 251 278 320
344 303 238 331 320 332 328 316 322 237 215 208 182 252 263 298 311 316 296 293 294 288 281 282 296 307 290 333 305 280 292 305 309 303 293 295 19 293 291 215 254 249 251 293 312
353 324 244 233 320 322 323 304 255 256 97 13 342 322 316 300 292 329 313 289 298 308 305 314 301 287 347 341 323 324 303 309 296 307 284 325 201 239 356 346 349 345 341 324 310
354 348 249 269 309 317 321 272 261 318 5 349 332 317 288 316 320 285 296 303 314 327 323 302 315 334 349 325 306 296 299 300 298 301 299 306 273 23 5 339 332 347 341 343 298
342 352 348 261 310 315 294 256 358 353 344 332 317 305 328 329 336 324 309 315 337 346 310 322 286 315 305 299 313 311 314 335 265 258 280 281 285 39 325 283 332 9 340 324 350
346 272 231 285 303 288 257 255 331 359 351 331 308 302 326 327 321 324 321 326 331 4 323 307 306 313 307 322 292 294 322 260 224 305 314 302 310 137 272 340 308 295 207 274 329
353 267 113 332 298 257 261 328 356 344 341 331 320 312 314 316 328 318 295 305 5 346 332 319 299 289 304 309 314 317 322 310 357 258 303 313 306 326 320 7 339 332 328 323 338
344 291 6 336 264 238 357 357 317 320 323 305 304 300 319 321 320 307 307 307 21 351 318 39 296 297 303 297 275 222 322 276 252 279 276 283 283 292 317 328 340 326 325 333 328
321 295 355 2 317 348 339 331 304 291 322 318 305 310 329 313 306 287 304 309 331 324 311 25 281 309 311 298 354 317 318 313 295 300 287 285 283 310 328 313 329 320 312 314 312
318 320 2 328 194 348 336 313 327 319 305 312 310 305 290 306 317 302 299 292 297 311 301 235 269 264 263 284 298 302 299 294 288 275 289 277 295 294 304 328 332 324 317 310 305
349 16 12 308 330 319 310 302 301 313 329 325 314 304 310 308 309 301 304 312 304 306 292 203 261 271 267 285 290 292 291 293 313 296 300 287 292 312 324 329 323 307 304 302 292
5 350 325 297 304 296 287 305 329 333 331 315 316 322 317 307 302 300 306 300 302 302 288 188 266 281 281 283 286 292 304 330 311 303 315 314 299 311 339 336 317 303 299 299 295
356 336 306 290 296 312 327 336 314 315 312 312 324 314 307 303 311 304 296 287 274 277 274 271 274 282 280 295 304 298 346 267 316 316 319 297 302 345 321 314 307 303 299 288 279